Location: Radom
(51.4061°N, 21.1577°E)
Time: 10:13:08
(UTC+01:00)

ISS - Visible Passes

Search period start: 09 December 2023 00:00
Search period end: 19 December 2023 00:00
Orbit: 415 x 417 km, 51.6° (Epoch: 09 December)

Date Brightness Start Highest point End Pass type
(mag) Time Alt. Az. Time Alt. Az. Time Alt. Az.
16 Dec -0.5 06:10:52 10° SSE 06:12:30 13° SE 06:14:08 10° ESE visible
17 Dec -2.0 06:56:34 10° SW 06:59:39 35° SSE 07:02:45 10° E visible
18 Dec -1.5 06:07:53 10° SSW 06:10:42 25° SSE 06:13:31 10° E visible
